Elkins, WV

1:26 AM EST on January 23, 2018 (GMT -0500)
Elkins-Randolph County

Weather History for KEKN - April, 2013

Change the Weather History Date:

Sunday, April 28, 2013

  Actual Average Record
Temperature  
Mean Temperature 55 °F 53 °F  
Max Temperature 58 °F 67 °F 89 °F (1986)
Min Temperature 52 °F 40 °F 22 °F (1934)
Degree Days  
Heating Degree Days 10 12  
Month to date heating degree days 375 440  
Since 1 July heating degree days 5549 5541  
Cooling Degree Days 0 0  
Month to date cooling degree days 3 0  
Year to date cooling degree days 3 0  
Growing Degree Days 5 (Base 50)    
Moisture  
Dew Point 44 °F    
Average Humidity 64    
Maximum Humidity 77    
Minimum Humidity 51    
Precipitation  
Precipitation 0.13 in 0.13 in 1.56 in (2002)
Month to date precipitation 2.66 3.54  
Year to date precipitation 12.51 13.83  
Snow  
Snow 0.00 in - - ()
Month to date snowfall 0.0  
Since 1 September snowfall 77.5  
Snow Depth 0.00 in    
Sea Level Pressure  
Sea Level Pressure 30.10 in    
Wind  
Wind Speed 12 mph (SSE)    
Max Wind Speed 22 mph    
Max Gust Speed 36 mph    
Visibility 10 miles    
Events Rain    
T = Trace of Precipitation, MM = Missing Value Source: NWS Daily Summary

Daily Weather History Graph

Daily Weather History Graph

Search for Another Location

Airport or City:

Trip Planner

Search our weather history database for the weather conditions in past years. The results will help you decide how hot, cold, wet, or windy it might be!

Date:

Astronomy

Apr. 28, 2013 Rise Set
Actual Time 6:25 AM EDT 8:09 PM EDT
Civil Twilight 5:56 AM EDT 8:37 PM EDT
Nautical Twilight 5:22 AM EDT 9:12 PM EDT
Astronomical Twilight 4:45 AM EDT 9:49 PM EDT
Moon 11:37 PM EDT (4/28) 8:41 AM EDT (4/28)
Length of Visible Light 14h 41m
Length of Day
13h 44m
Waning Gibbous, 89% of the Moon is Illuminated
Apr 28
Waning Gibbous
May 2
Last Quarter
May 9
New
May 18
First Quarter
May 25
Full

Hourly Weather History & Observations

Time (EDT) Temp. Dew Point Humidity Pressure Visibility Wind Dir Wind Speed Gust Speed Precip Events Conditions
12:51 AM 57.9 °F 39.9 °F 51% 30.21 in 10.0 mi SSE 6.9 mph - N/A   Overcast
1:51 AM 57.0 °F 41.0 °F 55% 30.19 in 10.0 mi SSE 4.6 mph - N/A   Partly Cloudy
2:51 AM 57.0 °F 39.9 °F 53% 30.15 in 10.0 mi SSE 9.2 mph - N/A   Mostly Cloudy
3:51 AM 57.0 °F 39.0 °F 51% 30.14 in 10.0 mi SSE 8.1 mph - N/A   Overcast
4:51 AM 57.0 °F 39.0 °F 51% 30.12 in 10.0 mi South 12.7 mph 20.7 mph N/A   Overcast
5:51 AM 57.0 °F 39.9 °F 53% 30.11 in 10.0 mi SSE 15.0 mph 31.1 mph N/A   Overcast
6:51 AM 57.0 °F 41.0 °F 55% 30.12 in 10.0 mi SSE 16.1 mph 24.2 mph N/A   Overcast
7:51 AM 55.9 °F 42.1 °F 60% 30.13 in 10.0 mi South 11.5 mph 25.3 mph 0.00 in Rain Light Rain
8:51 AM 53.1 °F 46.0 °F 77% 30.14 in 6.0 mi SSE 9.2 mph 17.3 mph 0.03 in Rain Light Rain
9:51 AM 53.1 °F 46.9 °F 80% 30.14 in 7.0 mi SSE 9.2 mph - 0.05 in Rain Light Rain
10:51 AM 54.0 °F 46.9 °F 77% 30.14 in 9.0 mi SSE 10.4 mph - 0.04 in Rain Light Rain
11:51 AM 55.0 °F 46.0 °F 72% 30.13 in 10.0 mi South 12.7 mph 23.0 mph 0.00 in Rain Light Rain
12:51 PM 55.0 °F 46.0 °F 72% 30.10 in 10.0 mi South 15.0 mph 25.3 mph 0.01 in Rain Light Rain
1:51 PM 57.0 °F 45.0 °F 64% 30.10 in 10.0 mi SSE 15.0 mph 25.3 mph N/A   Mostly Cloudy
2:51 PM 57.0 °F 45.0 °F 64% 30.08 in 10.0 mi SSE 16.1 mph 26.5 mph N/A   Overcast
3:51 PM 57.0 °F 46.0 °F 67% 30.06 in 10.0 mi South 17.3 mph 26.5 mph N/A   Overcast
3:59 PM 57.2 °F 46.4 °F 67% 30.06 in 10.0 mi SE 15.0 mph 24.2 mph N/A   Overcast
4:51 PM 55.9 °F 46.0 °F 69% 30.05 in 10.0 mi SSE 13.8 mph 23.0 mph N/A   Overcast
5:51 PM 55.9 °F 46.0 °F 69% 30.04 in 10.0 mi SSE 15.0 mph 21.9 mph N/A   Overcast
6:08 PM 55.4 °F 46.4 °F 72% 30.03 in 10.0 mi South 11.5 mph 20.7 mph N/A   Overcast
6:16 PM 55.4 °F 46.4 °F 72% 30.03 in 10.0 mi SSE 12.7 mph 20.7 mph N/A   Overcast
6:51 PM 55.0 °F 46.0 °F 72% 30.04 in 10.0 mi SSE 11.5 mph 19.6 mph N/A   Overcast
7:51 PM 54.0 °F 45.0 °F 72% 30.06 in 10.0 mi SSE 18.4 mph 24.2 mph N/A   Overcast
8:09 PM 53.6 °F 44.6 °F 72% 30.04 in 10.0 mi SSE 12.7 mph 20.7 mph N/A   Overcast
8:51 PM 54.0 °F 44.1 °F 69% 30.05 in 10.0 mi South 10.4 mph 18.4 mph N/A   Overcast
9:51 PM 54.0 °F 44.1 °F 69% 30.06 in 10.0 mi South 10.4 mph 20.7 mph N/A   Overcast
10:51 PM 54.0 °F 43.0 °F 66% 30.06 in 10.0 mi South 12.7 mph 20.7 mph N/A   Overcast
11:51 PM 53.1 °F 44.1 °F 71% 30.05 in 10.0 mi SSE 10.4 mph - 0.00 in   Overcast